This is the latest recevied weather packets stored in our database for station/object KI5RAB. If no packets are shown the sender has not sent any weather packets the latest 10 day(s).
| Time | Temp. | Humidity | Pressure | Rain* | Wind** | Luminosity | Snow |
|---|---|---|---|---|---|---|---|
| 1778102425 | 27.78° C | 71% | 1012.2 hPa | 0 mm | - | 159 W/m² | - |
| 1778102121 | 29.44° C | 68% | 1012.3 hPa | 0 mm | - | 172 W/m² | - |
| 1778101818 | 31.67° C | 62% | 1012.1 hPa | 0 mm | - | 284 W/m² | - |
| 1778101515 | 31.67° C | 61% | 1012.2 hPa | 0 mm | - | 361 W/m² | - |
| 1778101211 | 31.67° C | 62% | 1012.1 hPa | 0 mm | - | 574 W/m² | - |
| 1778100908 | 31.67° C | 60% | 1012.3 hPa | 0 mm | - | 380 W/m² | - |
| 1778100603 | 31.11° C | 63% | 1012.2 hPa | 0 mm | - | 502 W/m² | - |
| 1778100302 | 30.56° C | 66% | 1012.4 hPa | 0 mm | - | 332 W/m² | - |
| 1778099993 | 30° C | 67% | 1012.4 hPa | 0 mm | - | 257 W/m² | - |
| 1778099691 | 30.56° C | 67% | 1012.5 hPa | 0 mm | - | 246 W/m² | - |
| 1778099387 | 31.67° C | 62% | 1012.5 hPa | 0 mm | - | 646 W/m² | - |
| 1778099085 | 30.56° C | 65% | 1012.3 hPa | 0 mm | - | 650 W/m² | - |
| 1778098780 | 30° C | 66% | 1012.4 hPa | 0 mm | - | 625 W/m² | - |
| 1778098479 | 31.67° C | 63% | 1012.6 hPa | 0 mm | - | 626 W/m² | - |
| 1778098174 | 31.11° C | 64% | 1012.8 hPa | 0 mm | - | 345 W/m² | - |
| 1778097871 | 30.56° C | 64% | 1012.8 hPa | 0 mm | - | 261 W/m² | - |
| 1778097567 | 30.56° C | 65% | 1012.8 hPa | 0 mm | - | 314 W/m² | - |
| 1778097264 | 30° C | 68% | 1012.9 hPa | 0 mm | - | 584 W/m² | - |
| 1778096961 | 29.44° C | 68% | 1012.8 hPa | 0 mm | - | 323 W/m² | - |
| 1778096658 | 30° C | 68% | 1012.8 hPa | 0 mm | - | 275 W/m² | - |
| 1778096355 | 30° C | 70% | 1012.8 hPa | 0 mm | - | 221 W/m² | - |
| 1778096052 | 29.44° C | 69% | 1012.7 hPa | 0 mm | - | 463 W/m² | - |
| 1778095748 | 30.56° C | 67% | 1012.8 hPa | 0 mm | - | 557 W/m² | - |
| 1778095445 | 30.56° C | 68% | 1012.8 hPa | 0 mm | - | 811 W/m² | - |
| 1778095142 | 30° C | 68% | 1012.9 hPa | 0 mm | - | 581 W/m² | - |
* Rain latest hour (hover to see other rain measurements)
** Current wind speed in m/s (hover to see current wind gust speed)